Location: Dresden
(51.0483°N, 13.7137°E)
Time: 00:33:42
(UTC+02:00)

ISS - Visible Passes

Search period start: 25 July 2017 00:00
Search period end: 04 August 2017 00:00
Orbit: 400 x 408 km, 51.6° (Epoch: 25 July)

Date Brightness Start Highest point End Pass type
(mag) Time Alt. Az. Time Alt. Az. Time Alt. Az.
25 Jul -3.9 00:08:11 10° W 00:11:27 86° N 00:14:44 10° E visible
25 Jul -4.0 01:44:43 10° W 01:48:00 89° S 01:51:16 10° ESE visible
25 Jul -3.1 03:21:19 10° W 03:24:16 31° SSW 03:27:12 10° SSE visible
25 Jul -2.7 21:40:15 10° SSW 21:42:57 24° SSE 21:45:39 10° E visible
25 Jul -4.0 23:15:52 10° WSW 23:19:07 79° SSE 23:22:23 10° E visible
26 Jul -3.8 00:52:23 10° W 00:55:39 81° N 00:56:43 39° E visible
26 Jul -1.4 02:28:54 10° W 02:29:16 12° W 02:29:16 12° W visible
26 Jul -3.9 22:23:36 10° WSW 22:26:48 59° SSE 22:30:02 10° E visible
27 Jul -3.8 00:00:01 10° W 00:03:17 78° N 00:05:18 21° E visible
27 Jul -2.1 01:36:31 10° W 01:37:54 23° W 01:37:54 23° W visible
27 Jul -3.8 23:07:37 10° W 23:10:53 83° N 23:14:09 10° E visible
28 Jul -3.6 00:44:09 10° W 00:46:54 60° W 00:46:54 60° W visible
28 Jul -3.9 22:15:15 10° WSW 22:18:30 85° S 22:21:47 10° E visible
28 Jul -3.9 23:51:47 10° W 23:55:02 83° N 23:56:02 42° E visible
29 Jul -1.2 01:28:18 10° W 01:28:38 12° W 01:28:38 12° W visible
29 Jul -3.8 22:59:22 10° W 23:02:38 78° N 23:05:11 15° E visible
30 Jul -2.6 00:35:52 10° W 00:37:49 31° W 00:37:49 31° W visible
30 Jul -3.8 22:06:56 10° W 22:10:13 80° N 22:13:28 10° E visible
30 Jul -4.0 23:43:28 10° W 23:46:44 78° SSW 23:47:01 69° SE visible
31 Jul -3.9 22:51:03 10° W 22:54:19 87° N 22:56:15 23° E visible
01 Aug -1.8 00:27:36 10° W 00:28:51 19° W 00:28:51 19° W visible
01 Aug -3.7 21:58:37 10° W 22:01:53 79° N 22:05:09 10° E visible
01 Aug -3.6 23:35:07 10° W 23:38:06 50° SW 23:38:06 50° SW visible
02 Aug -3.9 22:42:40 10° W 22:45:55 71° SSW 22:47:21 30° ESE visible
03 Aug -1.2 00:19:31 10° W 00:19:58 12° W 00:19:58 12° W visible
03 Aug -3.9 21:50:13 10° W 21:53:29 89° SSW 21:56:38 11° ESE visible
03 Aug -2.6 23:26:48 10° W 23:29:15 29° SW 23:29:15 29° SW visible
